TimeCDT,TemperatureF,Dew PointF,Humidity,Sea Level PressureIn,VisibilityMPH,Wind Direction,Wind SpeedMPH,Gust SpeedMPH,PrecipitationIn,Events,Conditions,WindDirDegrees,DateUTC
12:53 AM,55.9,41.0,57,29.89,10.0,South,3.5,-,N/A,,Clear,170,2013-04-28 05:53:00
1:53 AM,54.0,41.0,62,29.88,10.0,South,6.9,-,N/A,,Clear,190,2013-04-28 06:53:00
2:53 AM,53.1,43.0,69,29.85,10.0,South,4.6,-,N/A,,Clear,170,2013-04-28 07:53:00
3:53 AM,52.0,43.0,71,29.83,10.0,South,3.5,-,N/A,,Clear,170,2013-04-28 08:53:00
4:53 AM,50.0,43.0,77,29.83,10.0,SE,5.8,-,N/A,,Clear,140,2013-04-28 09:53:00
5:53 AM,46.9,43.0,86,29.82,10.0,SE,4.6,-,N/A,,Clear,130,2013-04-28 10:53:00
6:53 AM,45.0,43.0,93,29.81,10.0,Calm,Calm,-,N/A,,Clear,0,2013-04-28 11:53:00
7:53 AM,46.4,42.8,87,29.81,9.0,ESE,3.5,-,N/A,,Clear,120,2013-04-28 12:53:00
8:53 AM,54.0,45.0,72,29.79,10.0,South,8.1,-,N/A,,Clear,180,2013-04-28 13:53:00
9:53 AM,62.1,46.0,56,29.77,10.0,South,5.8,-,N/A,,Clear,180,2013-04-28 14:53:00
10:53 AM,66.9,45.0,45,29.76,10.0,South,5.8,-,N/A,,Clear,170,2013-04-28 15:53:00
11:53 AM,75.9,43.0,31,29.73,10.0,SSE,6.9,-,N/A,,Clear,160,2013-04-28 16:53:00
12:53 PM,80.1,41.0,25,29.70,10.0,SSE,13.8,-,N/A,,Clear,160,2013-04-28 17:53:00
1:53 PM,84.0,39.0,20,29.68,10.0,South,13.8,20.7,N/A,,Clear,170,2013-04-28 18:53:00
2:53 PM,86.0,34.0,16,29.67,10.0,South,13.8,21.9,N/A,,Clear,190,2013-04-28 19:53:00
3:53 PM,86.0,30.2,13,29.68,10.0,South,11.5,19.6,N/A,,Clear,180,2013-04-28 20:53:00
4:53 PM,84.9,32.0,15,29.63,10.0,West,3.5,-,N/A,,Clear,260,2013-04-28 21:53:00
5:20 PM,80.6,37.4,21,29.68,10.0,NNW,21.9,28.8,N/A,,Clear,340,2013-04-28 22:20:00
5:53 PM,79.0,36.0,21,29.68,10.0,North,20.7,32.2,N/A,,Clear,350,2013-04-28 22:53:00
6:53 PM,75.9,36.0,23,29.70,10.0,North,21.9,28.8,N/A,,Clear,350,2013-04-28 23:53:00
7:53 PM,72.0,34.0,25,29.74,10.0,North,19.6,-,N/A,,Clear,360,2013-04-29 00:53:00
8:53 PM,68.0,36.0,31,29.77,10.0,North,12.7,-,N/A,,Clear,360,2013-04-29 01:53:00
9:53 PM,66.0,36.0,33,29.80,10.0,North,10.4,-,N/A,,Clear,350,2013-04-29 02:53:00
10:53 PM,64.0,37.0,37,29.81,10.0,North,6.9,-,N/A,,Partly Cloudy,10,2013-04-29 03:53:00
11:53 PM,62.1,37.9,41,29.78,10.0,NNE,13.8,-,N/A,,Clear,20,2013-04-29 04:53:00